Погода в Совхозном

Россия / Кабардино-Балкарская Республика     43°48′05″N   43°08′48″E
темп.,
°C
ветер,
м/с
пор.,
м/с
влажн.,
%
обл.,
%
осадки,
мм/ч
давл.,
гПа
погр.,
м
19 сентября, вс
вс1900:00+12ю1189100 0.0 101610
03:00+11ююв11925 0.0 101611
06:00+10ююв1183100 0.0 101510
09:00+15в227086 0.0 1015332
12:00+19в436198 0.0 1013785
15:00+20вюв4458100 0.0 1013961
18:00+17юв227398 0.0 101321
21:00+15зюз228096 0.0 101415
20 сентября, пн
пн2000:00+13зюз227915 0.0 101413
03:00+14зюз22647 0.0 101417
06:00+13зюз226299 0.0 101413
09:00+19св115487 0.0 1014405
12:00+22всв3351100 0.0 10131136
15:00+22в435097 0.1 10131499
18:00+18юв126796 0.9 101412
21:00+15зюз228599 3.2 101732
21 сентября, вт
вт2100:00+16ююз11824 0.1 101711
03:00+13юз32825 0.1 101622
06:00+12юз32705 0.0 101619
09:00+18вюв24565 0.0 1014389
12:00+22вюв555549 0.0 10121017
15:00+22вюв565153 0.0 10101191
18:00+17ююз2275100 0.8 101117
21:00+14з228615 1.9 101221
22 сентября, ср
ср2200:00+12зсз2285100 0.3 101330
03:00+11зсз1190100 0.3 101416
06:00+12ссв2396100 0.1 1015299
09:00+11св2398100 1.4 1015308
12:00+10св3397100 1.3 1016305
15:00+10всв2297100 1.9 1015301
18:00+10всв2298100 0.8 1016208
21:00+9ссв2298100 1.1 1016466
23 сентября, чт
чт2300:00+9всв2298100 0.2 1016258
03:00+9в1298100 0.3 1015379
06:00+8в1298100 0.0 1014229
09:00+9в1297100 0.1 1013287
12:00+9в2496100 0.0 1011435
15:00+9вюв2395100 0.1 1010473
18:00+9ссв1197100 0.0 1009210
21:00+10с0096100 1.0 100867